World > North America > United States > Iowa   City of Des Moines, IA

Des Moines, Iowa Regional Weather

Lat: 41.58N, Lon: 93.62W
Wx Zone: IAZ060
Feedback

Des Moines, IA Regional Weather

Expires:202002241900;;031518
ASUS43 KEAX 241815
RWREAX

WEATHER ROUNDUP FOR EASTERN KANSAS AND NORTHWEST MISSOURI
NATIONAL WEATHER SERVICE KANSAS CITY/PLEASANT HILL MO
1200 PM CST MON FEB 24 2020


IAZ060-094-KSZ022-034>040-054-083-096-NEZ052-066-093-241900- 
...KANSAS...SOUTHEAST NEBRASKA AND IOWA...
  
CITY           SKY/WX    TMP DP  RH WIND       PRES   REMARKS
TOPEKA         CLOUDY    44  39  82 NE18G29   29.72S                  
6HR MIN TEMP:  41; 6HR MAX TEMP:  44; 6HR PCP:  0.06;                

MANHATTAN      CLOUDY    45  38  76 N10       29.77S                  
EMPORIA        CLOUDY    44  41  89 N18G29    29.69R                  
CHANUTE        CLOUDY    47  43  86 N12       29.63R                  
SALINA         CLOUDY    44  36  73 N18       29.80R                  
WICHITA        CLOUDY    46  39  76 N17G37    29.73R                  
OMAHA          PTSUNNY   45  24  43 NE9       29.86F                  
LINCOLN        SUNNY     46  21  37 N13       29.87S                  
FALLS CITY       N/A     44  30  57 N13       29.79S                  
LAMONI         MOSUNNY   39  29  67 NE15G22   29.78F WCI  31          
DES MOINES     CLOUDY    40  26  57 NE15      29.85F WCI  32          

$$

  

SKY/WX - Weather  TMP - Temperature  DP - Dew Point  RH - Relative Humidity
WIND - Wind Direction/Speed PRES - Barometric Pressure VSB - Visibility
WCI - Wind Chill Index E13G22 Wind - East Wind 13 mph/Gusts of 22 mph
Des Moines Weather Map
What is UTC time?